Scottsbluff, NE

9:03 PM MDT on October 22, 2019 (GMT -0600)
Heilig

Weather History for KBFF - June, 2019

Change the Weather History Date:

Friday, June 7, 2019

  Actual Average Record
Temperature  
Mean Temperature 73 °F -  
Max Temperature 89 °F 79 °F 103 °F (2006)
Min Temperature 57 °F 51 °F 32 °F (1915)
Cooling Degree Days 8    
Growing Degree Days 23 (Base 50)    
Moisture  
Dew Point 57 °F    
Average Humidity 66    
Maximum Humidity 90    
Minimum Humidity 38    
Precipitation  
Precipitation 0.08 in - - ()
Sea Level Pressure  
Sea Level Pressure 29.74 in    
Wind  
Wind Speed 11 mph (East)    
Max Wind Speed 24 mph    
Max Gust Speed 33 mph    
Visibility 10 miles    
Events Rain , Thunderstorm    
Averages and records for this station are not official NWS values.
T = Trace of Precipitation, MM = Missing Value Source: NWS Daily Summary

Daily Weather History Graph

Daily Weather History Graph

Search for Another Location

Airport or City:

Astronomy

Jun. 07, 2019 Rise Set
Actual Time 5:19 AM MDT 8:27 PM MDT
Civil Twilight 4:45 AM MDT 9:01 PM MDT
Nautical Twilight 4:02 AM MDT 9:44 PM MDT
Astronomical Twilight 3:10 AM MDT 10:36 PM MDT
Moon 9:40 AM MDT (6/7) No Moon Set
Length of Visible Light 16h 15m
Length of Day
15h 07m
Waxing Crescent, 23% of the Moon is Illuminated
Jun 7
Waxing Crescent
Jun 10
First Quarter
Jun 17
Full
Jun 25
Last Quarter
Jul 2
New

Hourly Weather History & Observations

Time (MDT) Temp. Heat Index Dew Point Humidity Pressure Visibility Wind Dir Wind Speed Gust Speed Precip Events Conditions
12:53 AM 61.0 °F - 52.0 °F 72% 29.76 in 10.0 mi East 10.4 mph - N/A   Clear
1:53 AM 61.0 °F - 51.1 °F 70% 29.75 in 10.0 mi ESE 9.2 mph - N/A   Clear
2:53 AM 61.0 °F - 51.1 °F 70% 29.74 in 10.0 mi ESE 11.5 mph - N/A   Clear
3:53 AM 59.0 °F - 51.1 °F 75% 29.74 in 10.0 mi East 9.2 mph - N/A   Clear
4:53 AM 59.0 °F - 51.1 °F 75% 29.75 in 10.0 mi ESE 9.2 mph - N/A   Clear
5:53 AM 57.9 °F - 52.0 °F 81% 29.74 in 10.0 mi North 16.1 mph 31.1 mph N/A   Clear
6:53 AM 63.0 °F - 53.1 °F 70% 29.75 in 10.0 mi SE 9.2 mph - N/A   Clear
7:53 AM 66.9 °F - 55.0 °F 66% 29.74 in 10.0 mi ESE 9.2 mph - N/A   Clear
8:53 AM 69.1 °F - 57.0 °F 65% 29.75 in 10.0 mi SE 8.1 mph - N/A   Clear
9:53 AM 73.9 °F - 57.0 °F 55% 29.74 in 10.0 mi SSE 5.8 mph - N/A   Clear
10:53 AM 80.1 °F 81.1 °F 61.0 °F 52% 29.73 in 10.0 mi SE 9.2 mph - N/A   Clear
11:53 AM 84.9 °F 85.9 °F 63.0 °F 48% 29.70 in 10.0 mi SE 9.2 mph - N/A   Clear
12:53 PM 87.1 °F 88.9 °F 64.9 °F 48% 29.68 in 10.0 mi ESE 6.9 mph - N/A   Clear
1:53 PM 84.0 °F 84.5 °F 62.1 °F 47% 29.65 in 10.0 mi ESE 4.6 mph - N/A   Partly Cloudy
2:29 PM 75.0 °F - 55.0 °F 50% 29.81 in 10.0 mi WNW 19.6 mph 26.5 mph N/A Thunderstorm Thunderstorm
2:53 PM 82.0 °F 82.7 °F 61.0 °F 49% 29.65 in 10.0 mi NNE 9.2 mph - N/A   Scattered Clouds
3:21 PM 81.0 °F 81.6 °F 60.1 °F 49% 29.78 in 10.0 mi NE 4.6 mph - N/A Thunderstorm Thunderstorm
3:36 PM 73.9 °F - 55.9 °F 53% 29.79 in 10.0 mi WNW 18.4 mph 28.8 mph N/A Thunderstorm Mostly Cloudy
3:53 PM 73.0 °F - 54.0 °F 51% 29.68 in 10.0 mi NNW 9.2 mph 23.0 mph 0.00 in Rain , Thunderstorm Light Rain
4:16 PM 69.1 °F - 55.0 °F 61% 29.80 in 10.0 mi NNE 13.8 mph - 0.00 in Rain , Thunderstorm Light Thunderstorms and Rain
4:50 PM 71.6 °F - 57.2 °F 60% 29.77 in 10.0 mi NNE 19.6 mph 26.5 mph 0.04 in Thunderstorm Partly Cloudy
4:53 PM 72.0 °F - 57.9 °F 61% 29.65 in 10.0 mi NNE 17.3 mph 26.5 mph 0.04 in Thunderstorm Partly Cloudy
5:46 PM 69.1 °F - 57.9 °F 68% 29.77 in 10.0 mi NE 13.8 mph - 0.00 in Rain Light Rain
5:53 PM 69.1 °F - 55.0 °F 61% 29.68 in 10.0 mi East 6.9 mph - 0.00 in Thunderstorm Overcast
6:11 PM 66.0 °F - 59.0 °F 78% 29.89 in 5.0 mi WSW 18.4 mph 33.4 mph 0.00 in Rain Rain
6:22 PM 63.0 °F - 59.0 °F 87% 29.88 in 3.0 mi West 12.7 mph - 0.05 in Rain , Thunderstorm Rain
6:45 PM 62.1 °F - 59.0 °F 90% 29.85 in 10.0 mi North 12.7 mph - 0.06 in Rain Light Rain
6:53 PM 62.1 °F - 59.0 °F 90% 29.73 in 10.0 mi NNE 15.0 mph - 0.07 in Rain Light Rain
7:05 PM 63.0 °F - 59.0 °F 87% 29.77 in 10.0 mi NE 24.2 mph 27.6 mph 0.00 in Rain Light Rain
7:53 PM 64.9 °F - 55.9 °F 73% 29.65 in 10.0 mi ENE 16.1 mph - 0.00 in   Clear
8:15 PM 66.0 °F - 55.0 °F 68% 29.79 in 10.0 mi SE 16.1 mph - N/A   Clear
8:53 PM 63.0 °F - 57.0 °F 81% 29.70 in 10.0 mi SE 10.4 mph - 0.00 in   Scattered Clouds
9:53 PM 64.9 °F - 55.9 °F 73% 29.69 in 10.0 mi East 16.1 mph 24.2 mph N/A   Clear
11:53 PM 62.1 °F - 57.9 °F 86% 29.65 in 10.0 mi East 5.8 mph - N/A   Partly Cloudy